Hourly Data Report for June 13, 2013

PORT HARDY A
BRITISH COLUMBIA

50°40'50.000" N
127°22'00.000" W
21.60 m
1026271
71109
YZT

Download Data

Hourly Data (June 2013)
Hourly Data Report for June 13, 2013
TIME
LST
Temp Definition
°C
Dew Point Definition
°C
Rel Hum Definition
%
Precip. Amount Definition
mm

Wind Dir Definition
10's deg

Wind Spd Definition
km/h
Visibility Definition
km
Stn Press Definition
kPa
Hmdx Definition


Wind Chill Definition


Weather Definition


00:00 8.8 8.5 98   19 2 24.1 101.98     LegendNANA
01:00 9.3 9.0 98   29 2 24.1 102.00     Mostly Cloudy
02:00 10.5 9.6 94   29 5 24.1 102.01     LegendNANA
03:00 10.2 9.4 95   26 5 24.1 102.01     LegendNANA
04:00 10.2 9.4 95   26 5 32.2 101.99     Mostly Cloudy
05:00 10.2 9.3 94   24 4 32.2 101.98     LegendNANA
06:00 10.7 9.3 91   27 8 32.2 101.99     LegendNANA
07:00 11.2 8.6 84   34 8 32.2 101.99     Cloudy
08:00 11.4 9.0 85   4 8 32.2 102.00     LegendNANA
09:00 11.8 9.0 83   1 8 32.2 102.02     LegendNANA
10:00 12.1 8.8 80   4 9 32.2 102.02     Cloudy
11:00 12.3 9.0 80   2 12 32.2 102.07     LegendNANA
12:00 13.1 9.2 77   36 13 32.2 102.07     LegendNANA
13:00 14.3 9.2 71   1 14 32.2 102.07     Mostly Cloudy
14:00 14.7 10.0 73   1 17 32.2 102.05     LegendNANA
15:00 14.1 9.6 74   36 18 32.2 102.06     LegendNANA
16:00 14.2 10.1 76   35 16 32.2 102.05     Mainly Clear
17:00 14.1 9.8 75   31 18 32.2 102.06     LegendNANA
18:00 13.5 9.8 78   34 15 32.2 102.06     LegendNANA
19:00 12.2 9.4 83   34 13 32.2 102.08     Mainly Clear
20:00 11.6 9.5 87   33 8 32.2 102.09     LegendNANA
21:00 11.6 9.7 88   34 11 32.2 102.11     LegendNANA
22:00 11.4 9.7 89   32 6 24.1 102.12     Cloudy
23:00 10.9 9.7 92   34 8 24.1 102.12     LegendNANA

Notes on Data Quality.

Legend

  • E = Estimated
  • M = Missing
  • NA = Not Available*
  • [empty] = Indicates an unobserved value
Date modified: